Wind_Speed
7 6 5 4 4 4 4 4 5 7 9 10 9 8 8 9 10 9 9 9 8 8 9 9 9 8 8 7 8 7 8 8 8 8 7 7 7 6 6 6 6 5 5 5 5 5 5 5 5
6 6 4 4 3 2 1 3 5 7 8 11 10 11 11 11 11 10 10 9 9 9 9 8 9 9 8 8 8 8 8 8 8 9 8 7 7 7 7 7 7 7 6 6 6 6 6 6 6
5 5 4 3 3 1 1 4 7 8 9 10 11 13 13 12 11 11 11 10 10 9 9 9 9 9 9 8 8 8 8 9 9 9 9 9 9 8 8 8 8 8 8 7 7 7 7 7 7
5 5 5 3 2 0 1 4 7 8 10 11 12 14 14 13 12 12 11 11 10 10 9 9 8 9 9 9 8 8 8 9 10 9 9 8 8 8 8 8 8 9 9 8 8 8 8 8 8
5 5 5 4 2 2 3 5 7 9 11 12 12 14 15 14 13 12 12 12 11 10 9 9 9 9 9 9 9 9 9 10 10 9 9 9 9 9 9 9 8 9 9 9 9 8 8 8 8
6 5 5 4 4 4 6 7 9 10 11 12 13 14 15 14 13 12 12 12 12 11 10 10 10 9 10 10 10 10 10 10 10 10 9 9 9 10 10 9 9 9 9 8 8 9 9 9 9
8 7 5 5 4 6 7 9 11 11 10 12 14 15 15 14 13 12 12 12 12 11 10 10 10 10 10 11 11 11 11 11 10 10 10 10 10 10 10 10 10 9 10 10 10 10 10 10 10
9 8 6 6 7 7 7 8 11 12 12 13 14 15 15 15 14 13 12 12 12 11 11 11 11 11 11 11 11 11 11 11 11 11 11 11 11 10 10 11 10 10 11 11 11 11 11 11 11
10 8 6 7 9 10 8 9 10 12 12 13 14 15 15 15 15 14 13 13 12 11 11 12 13 12 13 12 12 12 12 12 11 11 11 11 11 10 11 11 11 11 12 12 12 12 12 12 12
10 9 7 8 10 12 11 9 10 11 12 12 13 14 15 16 16 15 14 14 13 12 12 12 13 13 13 12 12 12 12 12 12 12 12 12 11 11 11 11 11 12 13 13 13 13 13 13 12
11 10 9 9 10 12 12 10 9 11 11 12 13 13 15 16 17 16 15 14 13 12 12 13 13 14 13 12 13 13 13 12 12 13 13 13 13 12 12 12 12 13 14 14 14 14 14 14 14
12 11 11 10 10 11 11 11 10 12 12 13 14 14 15 16 18 17 16 15 14 13 13 14 14 13 13 12 13 13 13 13 13 13 13 14 13 14 14 13 14 14 14 14 13 14 14 15 15
12 11 12 11 11 11 11 12 12 13 14 14 16 16 15 16 17 15 15 15 15 14 14 15 14 14 14 13 13 13 13 13 13 13 14 14 14 14 15 15 14 15 14 14 14 14 14 15 15
12 11 11 11 10 11 11 12 14 14 14 14 15 16 17 17 17 16 16 16 17 16 15 15 15 15 15 14 14 14 14 14 13 14 14 14 14 14 15 15 15 15 15 15 15 15 14 15 15
13 11 9 9 10 12 13 13 13 15 16 15 15 16 17 18 18 18 18 18 17 17 16 15 15 15 15 15 15 15 15 14 14 14 14 15 15 14 14 14 15 16 16 16 15 15 16 15 15
13 12 11 9 12 14 15 14 13 15 16 16 16 17 18 18 19 18 18 18 17 17 16 15 15 16 16 16 15 16 16 14 14 14 15 15 15 15 15 16 17 17 17 16 16 16 16 16 16
14 13 12 11 12 14 16 15 14 16 17 17 17 17 17 18 18 18 18 17 17 17 16 16 16 16 17 16 16 16 16 14 14 15 15 15 15 16 16 17 18 17 17 17 17 17 17 18 18
14 14 13 11 12 14 17 17 15 17 18 17 16 17 17 18 18 17 17 16 16 16 16 16 16 16 16 17 16 17 16 15 14 15 16 16 16 16 17 17 18 17 17 18 18 18 17 18 19
14 13 14 12 12 15 17 18 16 17 18 17 17 17 17 18 17 16 16 16 17 16 17 16 16 16 16 17 17 17 17 15 15 15 16 16 16 17 17 18 18 19 19 19 19 19 19 19 20
15 15 15 14 13 16 17 17 16 17 17 16 17 17 17 17 17 16 17 17 16 17 17 16 16 16 17 17 17 17 17 16 16 16 16 17 17 18 18 18 19 19 20 20 19 20 20 20 21
16 16 15 14 13 15 18 18 16 17 16 17 18 18 17 18 19 18 17 16 16 17 16 16 17 17 17 17 17 17 17 16 17 17 17 18 18 18 19 19 20 19 19 20 19 20 20 20 20
16 14 15 15 15 15 15 18 16 16 16 16 18 18 18 18 19 18 17 16 16 17 18 18 18 18 18 18 18 18 17 17 17 18 18 19 19 18 19 19 19 19 19 18 19 19 20 20 20
15 15 16 16 16 16 17 20 17 16 17 17 18 19 19 18 18 18 18 17 16 17 19 19 18 18 19 19 19 19 18 18 18 17 17 18 18 18 19 20 20 20 20 20 19 20 20 21 22
16 15 16 16 17 18 16 19 18 16 18 18 18 18 19 18 17 17 18 18 17 18 18 19 19 19 20 20 20 20 19 19 18 18 18 18 19 19 19 20 21 22 21 21 21 22 22 22 23
16 17 18 18 18 18 16 19 18 17 17 18 18 19 19 18 18 17 19 19 19 19 19 19 20 20 21 21 21 21 20 20 19 19 19 19 19 20 20 21 21 22 22 21 22 23 23 24 25
16 17 19 19 20 20 19 20 18 18 18 19 20 19 19 19 18 18 19 19 20 20 19 20 21 21 22 22 21 21 21 21 20 21 21 20 20 21 21 21 21 21 22 22 23 23 23 24 24
18 18 18 20 21 22 21 21 19 19 20 19 21 21 19 19 19 18 18 18 19 20 20 22 21 22 22 22 22 22 21 21 21 22 21 21 22 22 23 23 23 22 22 23 23 23 24 24 24
20 20 21 22 23 23 23 21 20 20 20 19 19 19 18 19 19 19 19 20 19 20 20 22 22 23 22 23 23 23 22 22 22 22 21 22 22 23 23 23 24 23 24 24 23 24 25 25 26
21 21 23 23 24 25 26 23 21 21 21 21 20 20 20 20 19 19 20 22 21 21 22 23 23 22 22 22 23 22 22 23 23 22 22 22 22 23 23 24 24 24 24 25 24 24 25 25 26
23 24 24 25 26 27 28 25 21 21 22 22 22 21 21 21 20 20 21 23 23 23 23 24 23 21 21 22 22 22 23 23 23 22 23 23 22 22 23 24 24 24 24 24 24 25 26 26 26
Wind_Direction
158 154 151 144 134 119 93 36 11 3 354 352 345 333 334 344 346 341 337 337 339 337 331 323 320 318 316 313 309 307 304 304 302 299 297 291 283 280 281 277 275 276 273 269 265 259 258 254 250
165 166 163 146 147 140 64 343 332 340 355 355 343 337 333 337 338 338 335 336 335 331 327 321 318 317 312 311 308 305 304 303 300 297 291 285 279 276 278 272 271 275 278 273 265 264 262 257 253
175 179 178 181 196 209 296 310 312 333 352 350 340 338 336 336 336 337 337 337 335 330 328 326 321 315 311 309 307 305 304 301 299 298 293 285 280 275 274 273 274 274 277 275 267 264 263 260 256
194 192 200 204 227 320 29 319 304 329 340 339 336 336 337 337 337 337 335 335 332 329 325 324 322 320 315 312 308 304 299 297 296 294 290 288 283 275 274 274 277 273 272 273 270 264 261 259 256
219 226 221 223 253 309 328 331 321 324 330 331 330 330 333 336 336 336 335 335 331 326 323 321 321 319 315 312 308 303 299 296 295 290 284 287 286 282 279 276 279 272 269 270 267 262 260 256 256
221 231 235 233 258 295 304 313 317 316 316 323 322 324 329 334 333 333 333 333 329 322 319 319 318 317 313 308 305 303 299 298 293 287 286 285 282 280 277 277 277 272 272 270 267 262 258 255 256
220 224 224 228 268 289 306 312 311 314 317 317 316 323 326 328 330 329 330 328 322 321 322 319 316 316 312 309 308 305 300 296 291 287 286 286 281 279 277 276 276 275 272 270 269 265 261 259 257
227 232 231 244 268 272 282 294 302 309 317 318 320 325 326 326 327 325 323 324 323 321 321 323 321 316 310 307 305 302 299 293 289 288 285 285 281 278 279 277 273 272 272 269 267 265 263 261 259
233 234 242 258 274 269 271 285 297 305 316 319 317 322 322 325 324 321 320 320 321 319 318 321 321 319 312 304 301 299 297 294 290 289 288 287 282 278 279 277 275 273 272 269 267 264 263 262 262
246 244 252 261 267 272 269 279 294 304 313 317 316 318 318 320 320 318 316 316 317 317 317 316 316 317 315 307 301 300 299 293 287 286 287 285 283 278 278 278 277 278 276 271 266 265 262 262 263
254 251 249 256 265 271 270 276 291 297 307 306 305 307 311 316 316 314 314 311 311 313 315 314 312 312 312 309 303 299 298 294 288 286 285 286 286 284 282 280 279 277 276 272 265 264 263 263 263
251 252 252 253 262 274 280 287 291 296 301 306 303 303 305 309 313 312 314 312 307 310 314 312 312 309 308 307 305 300 298 295 293 289 289 287 288 285 285 283 279 277 274 270 267 266 266 263 263
246 249 249 248 257 270 280 290 297 300 305 305 301 302 307 307 310 310 312 310 306 306 306 308 310 307 306 306 306 301 298 296 295 290 288 286 287 287 286 284 280 277 275 271 267 268 266 265 262
246 246 247 250 259 269 280 294 300 302 301 301 302 304 307 306 307 308 306 304 305 304 303 304 306 305 305 303 302 301 298 293 292 289 288 287 287 285 283 282 282 281 277 273 269 269 270 267 264
246 249 247 259 271 272 277 287 296 299 297 299 303 305 306 306 307 306 304 303 303 304 305 306 304 301 302 302 300 298 296 292 290 289 287 286 286 286 285 282 281 281 278 274 275 271 268 266 265
250 255 258 262 270 275 279 286 288 293 297 301 303 303 305 304 304 303 303 301 300 302 305 306 302 301 302 302 300 299 297 292 289 288 289 286 285 285 286 285 283 281 278 276 276 276 268 266 264
248 259 264 260 265 272 276 280 285 289 291 296 300 301 303 303 304 304 302 301 301 301 303 303 302 303 303 302 299 297 294 290 288 287 286 285 284 284 285 286 283 281 277 276 277 277 270 266 263
251 259 262 265 268 271 274 277 281 284 286 290 296 299 301 302 304 306 302 300 302 302 302 301 302 303 303 303 303 299 296 290 288 287 286 285 284 284 283 284 283 278 277 278 278 277 272 267 265
253 258 264 270 273 272 274 272 274 280 283 286 291 298 303 304 301 303 305 302 302 301 302 303 305 305 303 304 304 301 297 292 289 287 285 285 283 282 282 283 284 278 277 278 277 277 272 269 266
254 262 264 268 272 277 279 276 279 280 282 285 288 295 297 300 299 297 300 300 300 302 300 302 305 304 303 303 304 303 300 294 288 286 284 283 283 282 281 282 282 279 278 278 276 276 273 271 267
254 264 266 272 275 280 283 279 280 281 288 287 287 291 291 293 296 295 292 295 298 300 300 301 300 301 302 301 303 302 299 296 290 288 286 284 283 282 280 281 280 279 279 279 277 274 273 272 271
255 262 267 271 272 275 280 281 280 281 285 288 287 288 288 292 295 295 293 295 297 298 298 296 297 299 301 300 300 301 300 297 294 292 287 285 283 282 281 281 279 279 281 279 277 277 273 271 272
256 258 263 267 270 270 273 279 282 282 283 288 289 289 288 294 294 292 294 294 295 295 294 295 296 299 300 300 300 300 299 298 297 295 292 288 286 283 281 281 280 279 279 281 279 277 274 273 271
252 256 260 263 268 271 274 280 281 285 286 290 293 294 292 292 291 291 294 294 291 291 294 292 295 298 300 298 298 299 298 298 297 296 295 291 288 287 286 281 282 279 278 277 278 278 275 273 272
247 255 260 263 265 272 280 283 286 291 293 291 296 298 294 288 288 288 290 292 294 294 293 292 292 295 297 296 295 296 295 295 294 294 293 292 292 291 290 286 284 282 278 277 278 279 277 274 271
251 256 261 268 273 276 279 282 287 288 290 291 292 293 291 286 286 285 286 290 293 296 294 293 293 293 295 294 295 294 293 292 291 290 291 291 290 289 288 286 286 285 282 280 278 277 275 274 274
254 256 265 274 280 277 278 282 284 287 289 292 292 291 291 286 284 282 285 288 291 295 293 292 293 292 294 295 294 295 292 291 291 290 290 290 289 288 287 286 286 285 283 283 279 276 276 274 273
256 262 264 267 273 275 277 280 285 288 290 290 294 295 294 295 289 284 286 287 289 290 291 292 292 292 292 292 292 293 293 293 292 289 289 292 292 289 288 287 287 284 283 283 279 278 277 275 273
252 255 259 264 269 272 277 280 287 290 292 294 295 296 297 296 292 288 286 285 287 289 290 291 293 291 292 294 292 293 294 295 292 289 289 290 290 288 287 287 286 284 283 281 280 279 279 278 276
255 257 258 261 266 269 273 279 283 288 291 294 296 295 293 294 293 286 283 284 288 290 291 294 294 292 292 294 293 294 295 295 293 290 290 291 291 288 286 286 286 285 284 282 281 281 279 280 277
Height
5915 5915 5915 5916 5916 5915 5914 5913 5913 5914 5914 5914 5913 5911 5910 5910 5910 5910 5906 5903 5902 5900 5899 5898 5897 5896 5895 5894 5894 5893 5892 5891 5890 5890 5889 5889 5888 5888 5888 5887 5887 5887 5887 5886 5886 5886 5886 5885 5885
5915 5915 5916 5916 5915 5914 5914 5913 5912 5912 5913 5912 5911 5910 5909 5909 5908 5906 5904 5903 5900 5899 5898 5897 5896 5895 5894 5893 5892 5892 5891 5890 5889 5889 5888 5887 5887 5887 5886 5886 5886 5886 5885 5885 5885 5885 5884 5884 5884
5914 5914 5915 5915 5914 5913 5913 5912 5911 5911 5911 5911 5910 5909 5908 5907 5906 5904 5903 5901 5899 5898 5897 5896 5894 5893 5893 5892 5891 5890 5889 5889 5888 5887 5887 5886 5886 5885 5885 5885 5884 5884 5884 5884 5883 5883 5883 5883 5883
5915 5915 5915 5914 5913 5912 5911 5911 5910 5910 5910 5910 5909 5908 5906 5905 5904 5903 5901 5899 5898 5896 5895 5894 5893 5892 5891 5890 5889 5889 5888 5887 5886 5885 5885 5884 5884 5884 5883 5883 5882 5882 5882 5882 5881 5881 5881 5881 5881
5914 5914 5914 5913 5912 5912 5911 5910 5909 5909 5909 5909 5908 5906 5904 5903 5902 5901 5900 5898 5896 5895 5894 5893 5892 5890 5889 5888 5888 5887 5886 5885 5884 5883 5883 5883 5882 5882 5882 5881 5880 5880 5880 5880 5880 5879 5879 5879 5879
5913 5913 5913 5912 5912 5911 5911 5910 5908 5909 5908 5907 5906 5905 5903 5902 5900 5899 5898 5896 5895 5894 5892 5891 5890 5889 5888 5887 5886 5885 5884 5883 5882 5882 5881 5881 5880 5880 5880 5879 5879 5878 5878 5878 5878 5878 5878 5877 5878
5912 5912 5911 5911 5910 5910 5910 5909 5907 5907 5907 5906 5904 5903 5901 5900 5899 5898 5897 5895 5894 5892 5890 5890 5889 5887 5886 5885 5884 5883 5882 5881 5880 5879 5879 5878 5878 5878 5877 5877 5877 5876 5876 5876 5876 5876 5876 5876 5876
5910 5911 5910 5909 5908 5908 5908 5907 5906 5905 5904 5904 5903 5901 5899 5898 5897 5896 5895 5893 5892 5890 5889 5888 5887 5886 5884 5883 5881 5880 5879 5878 5878 5877 5877 5876 5876 5875 5875 5874 5874 5874 5874 5874 5873 5873 5874 5874 5874
5907 5909 5907 5907 5906 5905 5905 5905 5904 5903 5902 5901 5900 5899 5898 5896 5894 5893 5892 5891 5890 5888 5887 5886 5885 5883 5882 5881 5879 5878 5877 5876 5875 5875 5874 5874 5873 5873 5872 5872 5872 5871 5871 5871 5871 5871 5871 5871 5871
5905 5905 5905 5904 5904 5903 5903 5902 5902 5901 5900 5899 5898 5897 5895 5893 5892 5890 5890 5888 5887 5885 5884 5884 5882 5881 5879 5878 5876 5875 5874 5873 5872 5872 5871 5871 5870 5870 5869 5869 5869 5869 5868 5868 5868 5868 5868 5868 5869
5902 5903 5902 5902 5901 5901 5901 5900 5899 5899 5898 5898 5896 5894 5893 5891 5890 5888 5886 5885 5884 5883 5882 5881 5880 5878 5876 5875 5873 5872 5871 5870 5870 5869 5868 5868 5867 5867 5866 5866 5866 5865 5865 5865 5864 5865 5865 5865 5865
5900 5900 5899 5900 5899 5899 5898 5897 5897 5897 5897 5896 5894 5891 5890 5889 5887 5885 5883 5882 5881 5880 5879 5878 5877 5875 5874 5872 5870 5869 5868 5867 5867 5866 5865 5865 5864 5864 5863 5862 5862 5862 5861 5861 5861 5861 5861 5861 5862
5896 5897 5897 5897 5897 5896 5895 5895 5894 5894 5894 5892 5890 5888 5887 5886 5884 5882 5881 5880 5879 5877 5876 5875 5873 5872 5870 5869 5868 5866 5865 5864 5863 5863 5862 5862 5861 5860 5859 5858 5858 5858 5857 5857 5857 5857 5857 5857 5858
5893 5893 5894 5894 5894 5893 5893 5892 5891 5890 5890 5888 5887 5885 5884 5883 5881 5880 5878 5877 5875 5874 5873 5871 5870 5869 5867 5866 5865 5863 5862 5861 5860 5860 5859 5858 5857 5856 5856 5855 5854 5854 5853 5853 5853 5853 5853 5854 5854
5890 5890 5891 5891 5891 5890 5890 5889 5888 5887 5885 5885 5884 5882 5881 5880 5878 5878 5876 5874 5872 5870 5869 5868 5866 5865 5864 5862 5861 5860 5858 5858 5857 5856 5855 5854 5854 5853 5852 5851 5850 5850 5849 5849 5849 5849 5849 5850 5850
5886 5887 5888 5889 5887 5887 5887 5886 5885 5883 5882 5881 5881 5879 5878 5877 5875 5874 5872 5870 5868 5866 5865 5864 5863 5861 5860 5859 5857 5856 5854 5853 5853 5852 5852 5850 5850 5849 5848 5847 5847 5846 5845 5845 5845 5845 5845 5845 5845
5883 5883 5884 5885 5884 5884 5883 5882 5882 5880 5879 5878 5878 5876 5874 5873 5872 5870 5868 5866 5865 5863 5861 5860 5859 5858 5856 5854 5853 5852 5851 5850 5849 5848 5847 5847 5846 5845 5844 5843 5842 5841 5841 5841 5840 5840 5840 5840 5841
5880 5880 5880 5881 5881 5880 5878 5878 5877 5876 5875 5874 5874 5873 5871 5870 5869 5866 5864 5863 5861 5859 5858 5857 5855 5854 5852 5851 5849 5848 5847 5845 5844 5843 5843 5842 5841 5841 5840 5839 5838 5837 5837 5836 5836 5835 5835 5835 5835
5876 5876 5876 5877 5877 5875 5874 5873 5873 5872 5871 5870 5869 5868 5867 5866 5864 5863 5861 5859 5857 5856 5854 5853 5851 5850 5848 5847 5845 5844 5842 5841 5840 5839 5838 5837 5836 5836 5835 5834 5833 5832 5832 5831 5830 5830 5830 5830 5830
5871 5871 5872 5873 5873 5870 5868 5868 5868 5867 5867 5866 5864 5863 5863 5861 5860 5859 5858 5856 5854 5852 5851 5849 5848 5846 5845 5843 5842 5840 5838 5837 5836 5835 5834 5833 5832 5831 5830 5829 5828 5826 5825 5825 5824 5824 5824 5824 5824
5867 5868 5868 5868 5867 5866 5864 5863 5864 5863 5863 5862 5861 5859 5858 5857 5856 5855 5853 5852 5850 5849 5847 5846 5844 5843 5841 5840 5838 5836 5834 5833 5832 5830 5829 5828 5827 5826 5825 5824 5822 5821 5820 5819 5818 5818 5818 5818 5818
5863 5864 5864 5863 5862 5862 5861 5858 5859 5858 5858 5857 5855 5854 5853 5853 5851 5849 5848 5847 5846 5845 5843 5842 5840 5839 5837 5836 5834 5832 5830 5829 5827 5825 5824 5823 5821 5820 5819 5818 5817 5816 5815 5814 5813 5813 5812 5812 5812
5859 5860 5859 5859 5858 5857 5857 5854 5855 5854 5853 5852 5850 5849 5848 5846 5846 5844 5843 5843 5842 5840 5839 5837 5835 5834 5832 5831 5829 5827 5826 5824 5822 5821 5819 5818 5816 5815 5814 5812 5811 5810 5809 5808 5807 5807 5806 5806 5805
5854 5855 5855 5854 5853 5852 5853 5851 5849 5849 5848 5847 5845 5843 5842 5841 5840 5839 5838 5837 5837 5835 5834 5832 5831 5829 5828 5826 5824 5822 5821 5819 5817 5816 5814 5813 5811 5809 5808 5806 5805 5804 5803 5802 5801 5800 5799 5799 5799
5849 5850 5850 5849 5848 5847 5848 5845 5845 5845 5844 5842 5840 5838 5837 5836 5834 5833 5833 5832 5831 5830 5829 5828 5826 5825 5823 5821 5819 5817 5815 5814 5812 5811 5809 5808 5806 5804 5802 5801 5799 5797 5796 5795 5795 5794 5793 5792 5792
5844 5845 5845 5845 5844 5843 5843 5841 5842 5840 5839 5837 5835 5833 5832 5830 5829 5828 5827 5827 5826 5825 5824 5822 5821 5820 5818 5816 5814 5812 5810 5808 5807 5806 5804 5802 5800 5798 5797 5794 5793 5791 5790 5788 5787 5787 5786 5785 5785
5840 5840 5841 5841 5839 5837 5837 5837 5837 5836 5834 5832 5830 5828 5826 5825 5823 5823 5822 5822 5821 5820 5819 5818 5816 5814 5813 5810 5808 5806 5805 5803 5801 5799 5797 5796 5794 5792 5790 5788 5786 5785 5783 5782 5781 5780 5779 5779 5778
5836 5836 5836 5835 5833 5832 5831 5832 5833 5831 5829 5827 5824 5822 5820 5819 5819 5818 5818 5817 5816 5816 5815 5813 5811 5809 5807 5805 5803 5801 5799 5797 5794 5793 5791 5789 5787 5786 5784 5782 5780 5778 5777 5775 5774 5773 5772 5771 5770
5830 5830 5829 5829 5828 5827 5825 5828 5827 5825 5823 5821 5819 5817 5815 5814 5813 5812 5812 5811 5809 5809 5808 5807 5805 5802 5800 5799 5797 5795 5793 5790 5788 5786 5784 5783 5781 5779 5777 5775 5773 5771 5769 5768 5767 5766 5764 5763 5762
5823 5824 5824 5824 5823 5821 5820 5823 5821 5820 5817 5815 5813 5812 5810 5809 5808 5807 5806 5806 5804 5803 5802 5800 5798 5796 5794 5792 5791 5788 5786 5784 5781 5779 5778 5776 5774 5772 5770 5769 5766 5764 5762 5761 5759 5758 5757 5755 5754